DW2849 Weather Reports


Display with metric or nautical units.
time (UTC)temp
F
wind
direction
speed
MPH
gust
MPH
rain 1hr
in
rain 24hr
in
rain mn
in
humidity
%
barometer
mb
20260905222137 68 220 3.0 4.0 0.00 0.01 0.01 69 1014.5
20260905221037 0 238 3.0 7.0 0.00 0.01 0.01 1014.6
20260905215937 69 248 5.0 12.0 0.00 0.01 0.01 68 1014.6
20260905214837 69 256 3.0 6.0 0.00 0.01 0.01 69 1014.6
20260905213546 70 210 3.0 4.0 0.00 0.01 0.01 66 1014.6
20260905212447 69 219 4.0 7.0 0.00 0.01 0.01 67 1014.6
20260905211154 69 195 3.0 6.0 0.00 0.01 0.01 68 1014.7
20260905210055 69 214 3.0 6.0 0.00 0.01 0.01 66 1014.7
20260905204954 68 206 3.0 5.0 0.00 0.01 0.01 67 1014.7
20260905203854 70 251 3.0 8.0 0.00 0.01 0.01 67 1014.8
20260905202756 69 199 3.0 6.0 0.00 0.01 0.01 68 1014.7
20260905201654 70 199 3.0 4.0 0.00 0.01 0.01 68 1014.6
20260905200554 70 270 3.0 6.0 0.00 0.01 0.01 68 1014.6
20260905195306 69 193 1.0 3.0 0.00 0.01 0.01 69 1014.6
20260905194203 69 32 2.0 4.0 0.00 0.01 0.01 69 1014.6
20260905193107 68 128 2.0 4.0 0.00 0.01 0.01 70 1014.6
20260905192003 68 169 2.0 4.0 0.00 0.01 0.01 70 1014.6
20260905190712 67 109 1.0 3.0 0.00 0.01 0.01 69 1014.7
20260905185612 67 152 2.0 4.0 0.00 0.01 0.01 71 1014.8
20260905184512 66 172 2.0 3.0 0.00 0.01 0.01 72 1014.8
20260905183412 66 124 1.0 4.0 0.00 0.01 0.01 72 1014.8
20260905182312 65 180 2.0 3.0 0.00 0.01 0.01 73 1014.8
20260905181212 64 270 2.0 5.0 0.00 0.01 0.01 72 1014.7
20260905180112 63 218 3.0 3.0 0.00 0.01 0.01 74 1014.8
20260905174821 62 231 1.0 2.0 0.00 0.01 0.01 75 1014.7
20260905173722 61 177 2.0 5.0 0.00 0.01 0.01 76 1014.8
20260905172621 61 158 1.0 2.0 0.00 0.01 0.01 74 1014.8
20260905171329 60 112 1.0 2.0 0.00 0.01 0.01 75 1014.6
20260905170230 59 127 1.0 3.0 0.00 0.01 0.01 76 1014.6
20260905165129 59 148 0.0 2.0 0.01 0.01 0.01 76 1014.5
20260905164029 59 180 1.0 4.0 0.01 0.01 0.01 79 1014.4
20260905162929 58 195 1.0 3.0 0.01 0.01 0.01 80 1014.4
20260905161829 57 158 1.0 1.0 0.01 0.01 0.01 82 1014.2
20260905160729 57 225 0.0 2.0 0.01 0.01 0.01 80 1014.3
20260905155629 57 180 0.0 1.0 0.00 0.00 0.00 81 1014.3
20260905154529 56 225 0.0 0.0 0.00 0.00 0.00 82 1014.3
20260905153238 56 0 0.0 1.0 0.00 0.00 0.00 82 1014.2
20260905152138 55 0 0.0 0.0 0.00 0.00 0.00 82 1014.1
20260905151038 55 0 0.0 2.0 0.00 0.00 0.00 83 1014.0
20260905145938 54 0 1.0 2.0 0.00 0.00 0.00 84 1013.9
20260905144838 54 45 2.0 2.0 0.00 0.00 0.00 83 1013.8
20260905143546 54 45 2.0 2.0 0.00 0.00 0.00 84 1013.9
20260905142446 54 22 2.0 2.0 0.00 0.00 0.00 84 1013.8
20260905141346 54 0 2.0 2.0 0.00 0.00 0.00 84 1013.7
20260905140054 54 0 1.0 2.0 0.00 0.00 0.00 84 1013.6
20260905134955 54 45 1.0 2.0 0.00 0.00 0.00 84 1013.6
20260905133854 54 45 1.0 2.0 0.00 0.00 0.00 83 1013.6
20260905132754 54 45 1.0 2.0 0.00 0.00 0.00 82 1013.5
20260905131655 55 0 1.0 2.0 0.00 0.00 0.00 81 1013.4
20260905130403 54 0 1.0 2.0 0.00 0.00 0.00 81 1013.4
20260905125306 55 0 1.0 1.0 0.00 0.00 0.00 81 1013.4
20260905124203 55 45 0.0 0.0 0.00 0.00 0.00 79 1013.4
20260905122912 55 45 0.0 0.0 0.00 0.00 0.00 78 1013.3
20260905121812 56 45 0.0 0.0 0.00 0.00 0.00 78 1013.4
20260905120711 56 45 0.0 0.0 0.00 0.00 0.00 78 1013.4
20260905115612 55 45 1.0 2.0 0.00 0.00 0.00 78 1013.5
20260905114511 55 45 1.0 2.0 0.00 0.00 0.00 79 1013.5
20260905113412 55 45 2.0 2.0 0.00 0.00 0.00 79 1013.5
20260905112312 55 45 1.0 2.0 0.00 0.00 0.00 79 1013.5
20260905111020 56 22 1.0 2.0 0.00 0.00 0.00 78 1013.6
20260905105921 57 22 1.0 2.0 0.00 0.00 0.00 75 1013.6
20260905104629 57 0 0.0 0.0 0.00 0.00 0.00 74 1013.5
20260905103529 57 68 0.0 0.0 0.00 0.00 0.00 74 1013.6
20260905102429 57 315 0.0 0.0 0.00 0.00 0.00 74 1013.6
20260905101329 57 315 0.0 0.0 0.00 0.00 0.00 75 1013.6
20260905100229 57 315 0.0 0.0 0.00 0.00 0.00 74 1013.6
20260905095129 57 270 0.0 0.0 0.00 0.00 0.00 74 1013.7
20260905094029 57 205 0.0 0.0 0.00 0.00 0.00 74 1013.8
20260905092929 56 202 0.0 0.0 0.00 0.00 0.00 76 1013.9
20260905091829 56 270 0.0 0.0 0.00 0.00 0.00 76 1013.9
20260905090538 56 270 0.0 0.0 0.00 0.00 0.00 78 1013.9
20260905085438 56 270 0.0 0.0 0.00 0.00 0.00 78 1013.9
20260905084338 57 315 0.0 0.0 0.00 0.00 0.00 76 1014.0
20260905083238 57 315 0.0 0.0 0.00 0.00 0.00 76 1014.1
20260905081946 57 315 0.0 1.0 0.00 0.00 0.00 77 1014.0
20260905080846 57 315 0.0 1.0 0.00 0.00 0.00 76 1014.1
20260905075746 57 315 0.0 0.0 0.00 0.00 0.00 78 1014.1
20260905074647 57 315 0.0 2.0 0.00 0.00 0.00 77 1014.1
20260905073546 57 315 2.0 2.0 0.00 0.00 0.00 77 1014.1
20260905072255 57 292 0.0 0.0 0.00 0.00 0.00 77 1014.1
20260905071156 57 292 0.0 0.0 0.00 0.00 0.00 78 1014.1
20260905070055 56 292 1.0 1.0 0.00 0.00 0.00 79 1014.0
20260905064955 57 292 0.0 0.0 0.00 0.00 0.00 78 1014.0
20260905063855 56 292 0.0 2.0 0.00 0.00 0.00 80 1013.9
20260905062604 55 292 1.0 2.0 0.00 0.00 0.00 83 1013.9
20260905061507 56 292 0.0 2.0 0.00 0.00 0.00 81 1013.9
20260905060213 55 292 1.0 2.0 0.00 0.00 0.00 82 1013.9
20260905055113 55 292 1.0 2.0 0.00 0.00 0.00 83 1014.0
20260905054013 55 323 0.0 2.0 0.00 0.00 0.00 84 1014.1
20260905052912 55 0 1.0 2.0 0.00 0.00 0.00 84 1014.1
20260905051813 55 32 1.0 3.0 0.00 0.00 0.00 84 1014.2
20260905050713 55 287 2.0 3.0 0.00 0.00 0.00 84 1014.2
20260905045613 55 315 2.0 2.0 0.00 0.00 0.00 84 1014.3
20260905044321 55 278 2.0 3.0 0.00 0.00 0.00 85 1014.2
20260905043221 55 264 2.0 4.0 0.00 0.00 0.00 85 1014.1
20260905042122 55 250 2.0 6.0 0.00 0.00 0.00 85 1014.0
20260905041021 55 254 3.0 4.0 0.00 0.00 0.00 85 1013.9
20260905035921 55 228 3.0 5.0 0.00 0.00 0.00 85 1013.9
20260905034821 56 228 2.0 4.0 0.00 0.00 0.00 84 1013.8
20260905033721 56 219 2.0 4.0 0.00 0.00 0.00 84 1013.7
20260905032621 56 231 2.0 5.0 0.00 0.00 0.00 84 1013.6
20260905031330 56 225 2.0 7.0 0.00 0.00 0.00 83 1013.6
20260905030230 56 222 4.0 7.0 0.00 0.00 0.00 83 1013.6
20260905025130 56 228 3.0 5.0 0.00 0.00 0.00 82 1013.5
20260905023839 57 250 3.0 6.0 0.00 0.00 0.00 81 1013.6
20260905022738 57 266 3.0 4.0 0.00 0.00 0.00 80 1013.6
20260905021639 58 225 3.0 6.0 0.00 0.00 0.00 80 1013.5
20260905020538 58 235 3.0 9.0 0.00 0.00 0.00 79 1013.5
20260905015247 59 205 3.0 6.0 0.00 0.00 0.00 78 1013.5
20260905014148 59 265 4.0 9.0 0.00 0.00 0.00 78 1013.6
20260905013047 59 259 5.0 10.0 0.00 0.00 0.00 77 1013.7
20260905011947 59 236 3.0 11.0 0.00 0.00 0.00 77 1013.6
20260905010847 60 295 4.0 13.0 0.00 0.00 0.00 76 1013.6
20260905005747 60 260 3.0 6.0 0.00 0.00 0.00 77 1013.6
20260905004647 61 270 3.0 5.0 0.00 0.00 0.00 77 1013.6
20260905003548 61 270 3.0 10.0 0.00 0.00 0.00 77 1013.6
20260905002256 61 245 5.0 11.0 0.00 0.00 0.00 77 1013.6
20260905001156 62 267 5.0 11.0 0.00 0.00 0.00 76 1013.6
20260905000056 62 264 3.0 7.0 0.00 0.00 0.00 76 1013.6
20260904234956 63 238 4.0 9.0 0.00 0.00 0.00 76 1013.8
20260904233856 63 225 4.0 10.0 0.00 0.00 0.00 74 1013.8
20260904232604 64 245 5.0 9.0 0.00 0.00 0.00 73 1013.8
20260904231504 65 254 3.0 8.0 0.00 0.00 0.00 72 1013.7
20260904230404 65 266 5.0 9.0 0.00 0.01 0.00 71 1013.7
20260904225306 66 205 4.0 8.0 0.00 0.01 0.00 71 1013.7
20260904224013 66 252 3.0 6.0 0.00 0.01 0.00 71 1013.8
20260904222913 66 302 3.0 8.0 0.00 0.01 0.00 69 1014.0